TimeCDT,TemperatureF,Dew PointF,Humidity,Sea Level PressureIn,VisibilityMPH,Wind Direction,Wind SpeedMPH,Gust SpeedMPH,PrecipitationIn,Events,Conditions,WindDirDegrees,DateUTC
12:52 AM,66.9,62.1,84,30.04,10.0,ESE,3.5,-,0.00,Rain,Light Rain,120,2013-08-16 05:52:00
1:52 AM,66.0,62.1,87,30.05,10.0,Calm,Calm,-,0.00,Rain,Light Rain,0,2013-08-16 06:52:00
2:52 AM,64.9,61.0,87,30.04,10.0,SE,3.5,-,N/A,,Scattered Clouds,130,2013-08-16 07:52:00
3:52 AM,64.0,61.0,90,30.04,10.0,Calm,Calm,-,N/A,,Clear,0,2013-08-16 08:52:00
4:52 AM,62.1,60.1,93,30.05,7.0,Calm,Calm,-,N/A,,Clear,0,2013-08-16 09:52:00
5:52 AM,62.1,59.0,90,30.04,10.0,Calm,Calm,-,N/A,,Clear,0,2013-08-16 10:52:00
6:52 AM,62.1,59.0,90,30.07,10.0,Calm,Calm,-,N/A,,Clear,0,2013-08-16 11:52:00
7:52 AM,63.0,60.1,90,30.10,10.0,Calm,Calm,-,N/A,,Clear,0,2013-08-16 12:52:00
8:52 AM,66.9,61.0,81,30.10,10.0,East,3.5,-,N/A,,Clear,80,2013-08-16 13:52:00
9:52 AM,71.1,61.0,70,30.11,10.0,Calm,Calm,-,N/A,,Clear,0,2013-08-16 14:52:00
10:52 AM,73.0,61.0,66,30.12,10.0,Calm,Calm,-,N/A,,Clear,0,2013-08-16 15:52:00
11:52 AM,75.9,61.0,60,30.11,10.0,Calm,Calm,-,N/A,,Clear,0,2013-08-16 16:52:00
12:52 PM,77.0,60.1,56,30.10,10.0,Variable,5.8,-,N/A,,Clear,0,2013-08-16 17:52:00
1:52 PM,77.0,60.1,56,30.09,10.0,NE,3.5,-,N/A,,Mostly Cloudy,50,2013-08-16 18:52:00
2:52 PM,79.0,60.1,52,30.09,10.0,Variable,3.5,-,N/A,,Mostly Cloudy,0,2013-08-16 19:52:00
3:52 PM,79.0,61.0,54,30.08,10.0,NE,4.6,-,N/A,,Mostly Cloudy,40,2013-08-16 20:52:00
4:52 PM,81.0,62.1,52,30.08,10.0,Variable,4.6,-,N/A,,Partly Cloudy,0,2013-08-16 21:52:00
5:52 PM,80.1,60.1,50,30.09,10.0,Calm,Calm,-,N/A,,Scattered Clouds,0,2013-08-16 22:52:00
6:52 PM,78.1,62.1,58,30.09,10.0,Calm,Calm,-,N/A,,Scattered Clouds,0,2013-08-16 23:52:00
7:52 PM,73.9,61.0,64,30.10,10.0,Calm,Calm,-,N/A,,Mostly Cloudy,0,2013-08-17 00:52:00
8:52 PM,68.0,62.1,81,30.12,10.0,Calm,Calm,-,N/A,,Clear,0,2013-08-17 01:52:00
9:52 PM,68.0,61.0,78,30.13,10.0,Calm,Calm,-,N/A,,Clear,0,2013-08-17 02:52:00
10:52 PM,66.9,61.0,81,30.14,10.0,Calm,Calm,-,N/A,,Clear,0,2013-08-17 03:52:00
11:52 PM,64.9,60.1,84,30.15,10.0,Calm,Calm,-,N/A,,Clear,0,2013-08-17 04:52:00